[[{"header":{"parameterUnit":"m.s-1","parameterCategory":2,"la1":30.2991,"la2":30.254,"lo1":-89.0895,"lo2":-89.0444,"dy":0.0017,"dx":0.0017,"nx":28,"ny":28,"refTime":"2024-08-26T21:00:00:Z","depth":"0","parameterNumber":2,"parameterNumberName":"U-component_of_CURRENTS"},"data":[0,0,0,0,0,0,0,0,0,0,0,0,0,0,0,0,0,0,0,0,0,0,0,0,0,0,0,0,0,0,0,0,0,0,0,0,0,0,0,0,0,0,0,0,0,0,0,0,0,0,0,0,0,0,0,0,0,0,0.261,0.2611,0,0.2643,0.2643,0.2643,0.2631,0.2631,0.2631,0.263,0.2591,0.2591,0.259,0,0,0,0,0,0,0,0,0,0,0,0,0,0.2551,0.2552,0.261,0.2611,0.2611,0.2643,0.2643,0.2643,0.2631,0.2631,0.2631,0.263,0.2592,0.2591,0.259,0,0,0,0,0,0,0,0,0,0,0,0,0,0.2576,0.2552,0.261,0.2612,0.2613,0.2643,0.2643,0.2643,0.2632,0.2631,0.263,0.263,0.2592,0.2591,0.259,0.2595,0,0,0.2587,0.2586,0,0,0,0,0,0,0,0,0.2575,0.2578,0.2611,0.2612,0.2613,0.2636,0.2608,0.2625,0.2632,0.262,0.263,0.263,0.2603,0.2601,0.2604,0.2593,0.2591,0.2587,0.2586,0.2586,0.2585,0,0,0,0,0,0,0,0.2573,0.2576,0.2619,0.2612,0.2614,0.2617,0.262,0.2612,0.261,0.2621,0.2622,0.2632,0.2602,0.2605,0.2602,0.2591,0.2587,0.2586,0.2585,0.2585,0.262,0.2622,0,0,0,0,0,0,0.2577,0.2575,0.2618,0.262,0.2597,0.2619,0.2621,0.2626,0.2611,0.2611,0.2632,0.2631,0.2607,0.2604,0.2601,0.2637,0.2586,0.2585,0.2584,0.2619,0.2621,0.2622,0,0,0,0,0,0,0.2575,0.258,0.2617,0.2602,0.2607,0.2621,0.2626,0.2627,0.2633,0.2621,0.2618,0.2638,0.2606,0.2602,0.2607,0.2634,0.2584,0.2583,0.2617,0.2619,0.2622,0.269,0,0,0,0,0,0,0.2573,0.2579,0.2583,0.2602,0.2608,0.2639,0.2627,0.2628,0.2642,0.264,0.2625,0.2621,0.2605,0.2609,0.2607,0.2632,0.2582,0.2615,0.2618,0.2621,0.2685,0.2694,0.2701,0,0,0,0,0,0.2571,0.2579,0.2582,0.2588,0.2613,0.2641,0.2644,0.2649,0.2643,0.265,0.2645,0.2621,0.2626,0.261,0.2606,0.2632,0.2614,0.2617,0.2621,0.2682,0.2692,0.2701,0,0,0,0,0,0,0.2552,0.258,0.2583,0.2598,0.2621,0.264,0.265,0.2654,0.2657,0.2653,0.2636,0.2632,0.2648,0.2632,0.2615,0.2653,0.2618,0.2621,0.2666,0.2676,0.2683,0.2699,0.2582,0,0,0,0,0,0.2552,0.2565,0.2593,0.2605,0.2618,0.2635,0.2646,0.2653,0.2661,0.2662,0.2656,0.2653,0.2661,0.2661,0.2659,0.2676,0.2724,0.2693,0.2701,0.2707,0.2719,0.2808,0.2826,0.2634,0.2634,0.2634,0,0,0.2549,0.2566,0.2573,0.2603,0.2619,0.2652,0.2639,0.2662,0.2687,0.2657,0.2681,0.2677,0.2672,0.2695,0.2701,0.2684,0.28,0.2712,0.2718,0.2726,0.2814,0.2833,0.285,0.2636,0.2636,0.2636,0,0,0.2562,0.2565,0.2589,0.2612,0.2645,0.2661,0.2671,0.2696,0.2701,0.2727,0.2719,0.2737,0.2737,0.2751,0.2755,0.2806,0.2838,0.2803,0.2855,0.2942,0.2959,0.2975,0.3115,0.3142,0.2808,0.2808,0.2808,0,0.2559,0.259,0.26,0.2634,0.2658,0.267,0.2706,0.272,0.2744,0.2761,0.2741,0.2785,0.2769,0.2822,0.2837,0.2825,0.2899,0.2817,0.2955,0.297,0.2985,0.3125,0.3154,0.2812,0.2811,0.2811,0.281,0,0.26,0.2623,0.264,0.2688,0.2713,0.2742,0.2773,0.2796,0.2804,0.2824,0.2869,0.2865,0.2905,0.2896,0.2877,0.2972,0.3004,0.2956,0.2933,0.3009,0.3151,0.3181,0.2817,0.2816,0.2815,0.2814,0,0,0.2601,0.2656,0.2663,0.2692,0.2742,0.2769,0.2815,0.2866,0.2916,0.2926,0.2998,0.2999,0.3015,0.3023,0.3015,0.3067,0.3237,0.3057,0.306,0.3203,0.3492,0.3415,0.344,0.3218,0.3222,0.3225,0.3571,0,0.2632,0.2694,0.2716,0.278,0.2817,0.2843,0.2891,0.2936,0.2975,0.3048,0.3058,0.3118,0.3062,0.3099,0.3148,0.3208,0.3309,0.3152,0.3391,0.34,0.3324,0.3467,0.3254,0.3533,0.3599,0.3604,0.3608,0,0.2675,0.2708,0.2769,0.2832,0.2851,0.2891,0.2979,0.3024,0.3118,0.3151,0.322,0.3251,0.3348,0.3277,0.3464,0.3373,0.3454,0.3491,0.3505,0.3422,0.3373,0.3456,0.3584,0.3457,0.3652,0.3649,0.3646,0,0.2684,0.2748,0.2793,0.2815,0.289,0.2923,0.2966,0.3055,0.3114,0.324,0.3319,0.342,0.3509,0.3597,0.3684,0.3603,0.3897,0.38,0.3826,0.3825,0.3683,0.366,0.371,0.3964,0.3963,0.3962,0.3961,0,0.2713,0.2759,0.2799,0.2829,0.2886,0.2937,0.3023,0.3083,0.3202,0.3294,0.3384,0.3492,0.359,0.3751,0.3795,0.3931,0.4016,0.3887,0.391,0.3705,0.368,0.3588,0.3518,0.3975,0.3972,0.397,0.3968,0,0.2736,0.2763,0.2818,0.2877,0.2895,0.2939,0.3038,0.3113,0.3229,0.3368,0.3423,0.3614,0.3809,0.3933,0.412,0.4093,0.4084,0.4236,0.4013,0.3999,0.3798,0.374,0.3753,0.3648,0.4313,0.4313,0.4313,0,0.2771,0.2793,0.2836,0.2863,0.2891,0.2955,0.3009,0.3109,0.3187,0.3423,0.3493,0.3747,0.3865,0.4148,0.4173,0.4311,0.416,0.4188,0.3945,0.3804,0.376,0.3615,0.3514,0.3839,0.3835,0.3832,0.3829,0,0.2832,0.283,0.2874,0.2877,0.292,0.2965,0.304,0.3096,0.3232,0.3351,0.3516,0.3636,0.3903,0.3924,0.4114,0.4141,0.3928,0.4123,0.4029,0.3444,0.3241,0.3144,0.3647,0.3802,0.3804,0.3806,0.3808,0.3809,0.2888,0.2888,0.2892,0.2894,0.2932,0.2935,0.2926,0.3019,0.3096,0.322,0.3426,0.3544,0.3666,0.3856,0.3876,0.3752,0.3765,0.3595,0.3574,0.3472,0.3219,0.3681,0.3793,0.3796,0.3798,0.38,0.3802,0,0.2892,0.2874,0.2899,0.286,0.2844,0.2869,0.2908,0.2875,0.2883,0.3089,0.3196,0.3306,0.3324,0.3402,0.3349,0.3218,0.3059,0.3134,0.2867,0.2821,0.3293,0.311,0.3011,0.3011,0.3011,0.3011,0.3011,0.3011,0.2893,0.2873,0.2834,0.2753,0.2727,0.2632,0.2613,0.2596,0.2678,0.2738,0.2803,0.2929,0.3052,0.3043,0.2892,0.2812,0.2593,0.247,0.2522,0.2812,0.2851,0.2888,0.2699,0.2515,0.2515,0.1891,0.1886,0.1882]},{"header":{"parameterUnit":"m.s-1","parameterCategory":2,"la1":30.2991,"la2":30.254,"lo1":-89.0895,"lo2":-89.0444,"dy":0.0017,"dx":0.0017,"nx":28,"ny":28,"refTime":"2024-08-26T21:00:00:Z","depth":"0","parameterNumber":3,"parameterNumberName":"V-component_of_CURRENTS"},"data":[0,0,0,0,0,0,0,0,0,0,0,0,0,0,0,0,0,0,0,0,0,0,0,0,0,0,0,0,0,0,0,0,0,0,0,0,0,0,0,0,0,0,0,0,0,0,0,0,0,0,0,0,0,0,0,0,0,0,-0.0235,-0.0235,0,-0.0254,-0.0255,-0.0255,-0.0298,-0.0298,-0.0299,-0.03,-0.0394,-0.0396,-0.0398,0,0,0,0,0,0,0,0,0,0,0,0,0,-0.0272,-0.0271,-0.0235,-0.0235,-0.0235,-0.0254,-0.0255,-0.0255,-0.0298,-0.0299,-0.0299,-0.03,-0.0393,-0.0396,-0.0398,0,0,0,0,0,0,0,0,0,0,0,0,0,-0.0273,-0.0271,-0.0235,-0.0256,-0.0258,-0.0254,-0.0255,-0.0255,-0.0298,-0.0299,-0.0299,-0.03,-0.0393,-0.0395,-0.0398,-0.04,0,0,-0.0407,-0.0409,0,0,0,0,0,0,0,0,-0.0273,-0.0272,-0.0253,-0.0255,-0.0257,-0.0272,-0.0302,-0.0306,-0.0297,-0.0286,-0.03,-0.0301,-0.0357,-0.0363,-0.0369,-0.0404,-0.0408,-0.0408,-0.041,-0.0411,-0.0412,0,0,0,0,0,0,0,-0.0273,-0.0272,-0.0246,-0.0253,-0.0255,-0.0277,-0.0278,-0.0303,-0.0321,-0.0287,-0.0289,-0.0286,-0.0359,-0.0365,-0.0371,-0.041,-0.0408,-0.041,-0.0412,-0.0413,-0.0485,-0.0485,0,0,0,0,0,0,-0.0261,-0.0271,-0.0245,-0.0246,-0.0263,-0.0275,-0.0276,-0.0269,-0.0319,-0.0326,-0.0285,-0.0288,-0.036,-0.0368,-0.0375,-0.0391,-0.0411,-0.0414,-0.0415,-0.0485,-0.0485,-0.0485,0,0,0,0,0,0,-0.0261,-0.0258,-0.0245,-0.0257,-0.0257,-0.0273,-0.0264,-0.0268,-0.0274,-0.0316,-0.0325,-0.0286,-0.0361,-0.0371,-0.0403,-0.0395,-0.0415,-0.0418,-0.0484,-0.0485,-0.0485,-0.0416,0,0,0,0,0,0,-0.0262,-0.0258,-0.025,-0.0256,-0.0255,-0.0238,-0.0263,-0.0268,-0.0269,-0.0273,-0.032,-0.0329,-0.0362,-0.0398,-0.0406,-0.0399,-0.042,-0.0484,-0.0485,-0.0485,-0.0418,-0.0414,-0.041,0,0,0,0,0,-0.0263,-0.0246,-0.025,-0.0247,-0.0243,-0.0237,-0.0239,-0.0256,-0.0268,-0.0266,-0.0304,-0.0328,-0.0405,-0.04,-0.0409,-0.0404,-0.0484,-0.0484,-0.0485,-0.042,-0.0415,-0.0411,0,0,0,0,0,0,-0.0255,-0.0248,-0.0253,-0.0234,-0.0233,-0.0243,-0.024,-0.0249,-0.0275,-0.0282,-0.0328,-0.034,-0.0365,-0.0395,-0.0389,-0.0427,-0.0449,-0.0451,-0.0397,-0.0392,-0.0388,-0.0327,-0.0422,0,0,0,0,0,-0.0247,-0.0232,-0.0234,-0.0215,-0.0216,-0.0227,-0.0227,-0.0234,-0.0254,-0.0265,-0.0297,-0.0337,-0.0372,-0.039,-0.0424,-0.0441,-0.0423,-0.0445,-0.0441,-0.0437,-0.0395,-0.0382,-0.0371,-0.0486,-0.0486,-0.0486,0,0,-0.0238,-0.023,-0.0223,-0.0212,-0.0216,-0.0203,-0.023,-0.0221,-0.021,-0.0272,-0.0277,-0.0322,-0.0374,-0.0396,-0.041,-0.0421,-0.0395,-0.0438,-0.0434,-0.0392,-0.0381,-0.0369,-0.0359,-0.0486,-0.0486,-0.0486,0,0,-0.0204,-0.0206,-0.0183,-0.018,-0.0174,-0.0181,-0.0175,-0.0183,-0.0191,-0.0201,-0.0245,-0.0276,-0.033,-0.0357,-0.0381,-0.0372,-0.0374,-0.0398,-0.0326,-0.0315,-0.0304,-0.0295,-0.0243,-0.023,-0.0396,-0.0396,-0.0396,0,-0.0191,-0.0159,-0.0176,-0.0153,-0.0137,-0.0167,-0.0136,-0.0149,-0.0165,-0.0152,-0.0195,-0.0241,-0.0303,-0.0305,-0.0317,-0.0359,-0.0338,-0.034,-0.0305,-0.0296,-0.0287,-0.0237,-0.0222,-0.0393,-0.0393,-0.0394,-0.0394,0,-0.0142,-0.0116,-0.0102,-0.0082,-0.0074,-0.005,-0.0064,-0.006,-0.0077,-0.008,-0.0082,-0.0158,-0.0171,-0.0219,-0.0272,-0.0244,-0.0242,-0.0299,-0.0307,-0.027,-0.0221,-0.0207,-0.0388,-0.0389,-0.039,-0.0391,0,0,-0.0095,-0.0072,-0.0062,-0.0026,-0.0028,-0.0001,0.0008,0.0034,0.0082,0.0031,0.0102,-0.0006,-0.0024,-0.0051,-0.012,-0.013,-0.0078,-0.0184,-0.0185,-0.0111,-0.0011,-0.0008,0.0007,-0.013,-0.0128,-0.0126,0.0005,0,-0.0042,0.0025,0.0017,0.009,0.0128,0.0111,0.014,0.0156,0.0156,0.021,0.0146,0.017,0.0032,0.0042,0.0005,-0.0051,-0.004,-0.0105,-0.0074,-0.0071,-0.0058,0.0023,-0.004,0.0072,0.0019,0.0021,0.0023,0,0.0022,0.0064,0.0143,0.0213,0.023,0.0266,0.0343,0.0367,0.0405,0.0413,0.0415,0.0381,0.0364,0.0247,0.0191,0.0158,0.0097,0.0042,0.0044,0.0042,-0.0043,0.002,0.0098,-0.0081,0.0044,0.0042,0.0041,0,0.0104,0.0165,0.0242,0.0261,0.0318,0.0368,0.0403,0.0444,0.0516,0.0572,0.0655,0.0593,0.0633,0.0512,0.0379,0.0297,0.0353,0.0219,0.0179,0.0179,0.0135,0.0127,0.0065,0.0222,0.0222,0.0221,0.0221,0,0.0187,0.0258,0.0296,0.0349,0.0473,0.0471,0.0611,0.0636,0.0727,0.0874,0.0786,0.0907,0.0704,0.0696,0.0508,0.0422,0.0455,0.0247,0.0224,0.0156,0.0149,-0.0005,-0.0109,0.0226,0.0225,0.0224,0.0223,0,0.0292,0.0303,0.0415,0.0489,0.0525,0.0626,0.0763,0.0874,0.0927,0.113,0.1173,0.1194,0.1174,0.0986,0.0849,0.0646,0.0424,0.0482,0.0442,0.041,0.0137,0.0039,0.0033,-0.0036,0.0442,0.0443,0.0443,0,0.0365,0.0427,0.0537,0.0624,0.0674,0.0806,0.0918,0.0983,0.1119,0.1322,0.1459,0.1512,0.1571,0.1379,0.1036,0.0772,0.0552,0.0538,0.0339,0.0171,0.0044,-0.0024,-0.0088,0.0314,0.0313,0.0313,0.0313,0,0.0528,0.0557,0.0647,0.08,0.0934,0.1079,0.1242,0.1372,0.15,0.167,0.1897,0.196,0.1795,0.1507,0.1144,0.0906,0.039,0.0525,0.0347,-0.0034,-0.0105,-0.02,0.0206,0.0311,0.0311,0.0311,0.0311,0.0311,0.0672,0.0756,0.086,0.1006,0.1157,0.1341,0.1476,0.1659,0.1889,0.2136,0.2196,0.2294,0.1847,0.1329,0.1047,0.0417,0.0432,0.015,0.0063,0.0026,-0.0097,0.034,0.0405,0.0406,0.0406,0.0407,0.0407,0,0.0836,0.0908,0.106,0.123,0.1395,0.1435,0.1686,0.1826,0.2096,0.2309,0.2473,0.2244,0.1727,0.1163,0.0346,-0.0014,-0.0174,-0.0225,-0.0383,-0.0417,-0.0036,-0.0105,-0.0144,-0.0144,-0.0144,-0.0144,-0.0143,-0.0143,0.0938,0.1081,0.1124,0.1396,0.1513,0.1725,0.1859,0.208,0.2251,0.2445,0.2443,0.2418,0.19,0.0581,-0.0313,-0.0502,-0.0722,-0.076,-0.0828,-0.0655,-0.063,-0.0605,-0.0696,-0.0858,-0.0859,-0.1214,-0.1218,-0.1221]}],[{"header":{"parameterUnit":"m.s-1","parameterCategory":2,"la1":30.2991,"la2":30.254,"lo1":-89.0895,"lo2":-89.0444,"dy":0.0017,"dx":0.0017,"nx":28,"ny":28,"refTime":"2024-08-26T21:00:00:Z","depth":"2","parameterNumber":2,"parameterNumberName":"U-component_of_CURRENTS"},"data":[0,0,0,0,0,0,0,0,0,0,0,0,0,0,0,0,0,0,0,0,0,0,0,0,0,0,0,0,0,0,0,0,0,0,0,0,0,0,0,0,0,0,0,0,0,0,0,0,0,0,0,0,0,0,0,0,0,0,0.2455,0.2456,0,0.2516,0.2517,0.2517,0.2495,0.2494,0.2493,0.2492,0.2547,0.2549,0.2552,0,0,0,0,0,0,0,0,0,0,0,0,0,0.2398,0.2398,0.2455,0.2456,0.2457,0.2516,0.2517,0.2517,0.2495,0.2494,0.2493,0.2492,0.2546,0.2549,0.2552,0,0,0,0,0,0,0,0,0,0,0,0,0,0.2432,0.2398,0.2454,0.2457,0.2458,0.2516,0.2517,0.2517,0.2495,0.2494,0.2492,0.2491,0.2545,0.2549,0.2552,0.2601,0,0,0.2563,0.2564,0,0,0,0,0,0,0,0,0.243,0.2434,0.2455,0.2457,0.2459,0.2501,0.2517,0.2547,0.2495,0.2476,0.2492,0.2491,0.2536,0.254,0.2547,0.2603,0.2606,0.2563,0.2565,0.2567,0.2568,0,0,0,0,0,0,0,0.2428,0.2432,0.2474,0.2457,0.2459,0.2484,0.2485,0.2523,0.2508,0.2477,0.2477,0.2493,0.2535,0.2544,0.2548,0.2606,0.2563,0.2566,0.2568,0.257,0.2749,0.2752,0,0,0,0,0,0,0.2428,0.2429,0.2472,0.2476,0.2447,0.2486,0.2488,0.2485,0.2508,0.2512,0.2494,0.2492,0.2538,0.2544,0.255,0.2632,0.2567,0.257,0.2572,0.2747,0.275,0.2753,0,0,0,0,0,0,0.2427,0.2431,0.2469,0.2459,0.2467,0.2488,0.2485,0.2487,0.2504,0.2522,0.2524,0.2511,0.2538,0.2545,0.256,0.2633,0.2571,0.2575,0.2743,0.2748,0.2751,0.2781,0,0,0,0,0,0,0.2424,0.2429,0.2442,0.2459,0.2467,0.2489,0.2487,0.2489,0.2518,0.2515,0.2537,0.254,0.2537,0.2555,0.2564,0.2637,0.2577,0.274,0.2745,0.275,0.2777,0.2786,0.2794,0,0,0,0,0,0.2422,0.2437,0.2442,0.2448,0.2478,0.249,0.2495,0.2504,0.252,0.2517,0.2524,0.254,0.2596,0.2558,0.2568,0.2644,0.2738,0.2744,0.275,0.2773,0.2784,0.2793,0,0,0,0,0,0,0.2404,0.2437,0.2442,0.2462,0.2471,0.2488,0.2505,0.2519,0.2528,0.2532,0.2544,0.2547,0.2598,0.2616,0.2574,0.2715,0.2684,0.2692,0.2699,0.2709,0.2718,0.2815,0.258,0,0,0,0,0,0.2413,0.2433,0.2454,0.2465,0.2478,0.2499,0.2516,0.2518,0.2528,0.2532,0.2573,0.2611,0.2636,0.2659,0.2689,0.2752,0.2782,0.2821,0.2829,0.2835,0.2925,0.2979,0.3,0.2773,0.2773,0.2773,0,0,0.241,0.2431,0.2442,0.2465,0.2479,0.2507,0.2503,0.2523,0.2558,0.2541,0.262,0.2637,0.2656,0.2715,0.2747,0.2736,0.2903,0.2843,0.2848,0.2936,0.2988,0.301,0.3029,0.2777,0.2776,0.2775,0,0,0.242,0.2431,0.2461,0.248,0.2511,0.2518,0.2529,0.2574,0.26,0.2654,0.2662,0.2735,0.2778,0.2831,0.2849,0.2938,0.2937,0.2938,0.307,0.3117,0.3137,0.3155,0.3158,0.3176,0.2951,0.2951,0.2951,0,0.2422,0.2453,0.2466,0.2505,0.2541,0.2529,0.2573,0.2591,0.2643,0.2696,0.2682,0.2841,0.2857,0.2959,0.2994,0.2967,0.2962,0.3012,0.3128,0.3146,0.3164,0.3164,0.3184,0.2953,0.2953,0.2953,0.2953,0,0.2446,0.2492,0.2507,0.2555,0.2592,0.2611,0.2651,0.269,0.2734,0.2787,0.2918,0.2963,0.3078,0.3085,0.3067,0.322,0.3159,0.3113,0.3095,0.3189,0.3182,0.3202,0.2956,0.2956,0.2955,0.2954,0,0,0.2416,0.2507,0.2517,0.2565,0.2625,0.2647,0.2714,0.2782,0.2842,0.2943,0.3088,0.3182,0.3261,0.3299,0.3313,0.3382,0.3475,0.3319,0.332,0.3314,0.3541,0.3364,0.3368,0.3415,0.342,0.3425,0.3461,0,0.2433,0.2504,0.2564,0.2645,0.2693,0.2737,0.2803,0.2873,0.2935,0.3064,0.3185,0.3311,0.3315,0.3389,0.3471,0.3475,0.354,0.3469,0.3466,0.3468,0.3292,0.3392,0.3139,0.3141,0.348,0.3483,0.3486,0,0.2445,0.2504,0.2584,0.2711,0.2739,0.279,0.2896,0.297,0.3118,0.3184,0.3361,0.3444,0.3635,0.3602,0.373,0.3665,0.3657,0.3646,0.3644,0.3513,0.3333,0.3119,0.3164,0.3519,0.3516,0.3514,0.3512,0,0.2405,0.2524,0.2583,0.2622,0.2751,0.2817,0.2898,0.3023,0.3105,0.3308,0.3393,0.3595,0.372,0.3778,0.3796,0.3764,0.3877,0.3806,0.3646,0.3629,0.3448,0.3406,0.3927,0.3927,0.3927,0.3927,0.3926,0,0.2398,0.246,0.2566,0.2607,0.2703,0.283,0.2939,0.3034,0.321,0.3327,0.3495,0.3604,0.3771,0.3843,0.3844,0.3803,0.3912,0.3733,0.366,0.3439,0.3399,0.3767,0.3749,0.3928,0.3928,0.3927,0.3927,0,0.2368,0.2414,0.2509,0.2647,0.269,0.2784,0.2959,0.3034,0.3193,0.3363,0.3453,0.3648,0.3737,0.3823,0.3902,0.3831,0.3818,0.3767,0.348,0.3375,0.3528,0.3511,0.3629,0.3623,0.3619,0.3615,0.3612,0,0.2364,0.2397,0.2524,0.2578,0.2651,0.2778,0.2853,0.302,0.3103,0.3346,0.3426,0.3602,0.3648,0.3683,0.3651,0.3621,0.3722,0.3323,0.3259,0.3598,0.3515,0.3504,0.3493,0.3003,0.2995,0.2989,0.2984,0,0.238,0.2403,0.2474,0.2571,0.2651,0.2738,0.2871,0.2904,0.3102,0.3194,0.33,0.3365,0.3443,0.3306,0.3288,0.3233,0.3313,0.3187,0.3653,0.31,0.3006,0.2924,0.2935,0.2927,0.2933,0.2937,0.294,0.2942,0.2394,0.243,0.2488,0.2566,0.2665,0.2714,0.2717,0.2799,0.287,0.2957,0.3061,0.3034,0.3064,0.2908,0.2804,0.2757,0.2977,0.2836,0.2858,0.2886,0.279,0.2692,0.2534,0.2537,0.254,0.2542,0.2545,0,0.2395,0.2416,0.2487,0.2565,0.2622,0.2714,0.273,0.2657,0.2632,0.2708,0.2705,0.2449,0.2355,0.242,0.2257,0.221,0.2221,0.2121,0.2132,0.219,0.2241,0.2114,0.1678,0.1675,0.1672,0.167,0,0,0.2392,0.241,0.241,0.246,0.257,0.2558,0.2535,0.2417,0.2366,0.2223,0.2176,0.2261,0.2347,0.199,0.1929,0.1789,0.1984,0.1721,0.2421,0.2495,0.2543,0.2659,0.2528,0,0,0,0,0]},{"header":{"parameterUnit":"m.s-1","parameterCategory":2,"la1":30.2991,"la2":30.254,"lo1":-89.0895,"lo2":-89.0444,"dy":0.0017,"dx":0.0017,"nx":28,"ny":28,"refTime":"2024-08-26T21:00:00:Z","depth":"2","parameterNumber":3,"parameterNumberName":"V-component_of_CURRENTS"},"data":[0,0,0,0,0,0,0,0,0,0,0,0,0,0,0,0,0,0,0,0,0,0,0,0,0,0,0,0,0,0,0,0,0,0,0,0,0,0,0,0,0,0,0,0,0,0,0,0,0,0,0,0,0,0,0,0,0,0,0.0132,0.0132,0,0.0084,0.0083,0.0083,0.0044,0.0043,0.0043,0.0043,-0.0022,-0.0024,-0.0025,0,0,0,0,0,0,0,0,0,0,0,0,0,0.0151,0.0151,0.0132,0.0132,0.0131,0.0084,0.0083,0.0082,0.0044,0.0043,0.0043,0.0043,-0.0022,-0.0023,-0.0025,0,0,0,0,0,0,0,0,0,0,0,0,0,0.0126,0.0151,0.0132,0.0107,0.0105,0.0084,0.0083,0.0082,0.0044,0.0043,0.0043,0.0042,-0.0021,-0.0023,-0.0025,-0.0031,0,0,-0.0032,-0.0033,0,0,0,0,0,0,0,0,0.0127,0.0125,0.0111,0.0109,0.0106,0.007,0.0066,0.0044,0.0044,0.0066,0.0043,0.0042,0.0008,0.0004,-0.0006,-0.0034,-0.0036,-0.0032,-0.0034,-0.0035,-0.0035,0,0,0,0,0,0,0,0.0129,0.0127,0.0112,0.0111,0.0108,0.0085,0.0081,0.0062,0.0039,0.0064,0.0061,0.0058,0.0007,-0.0004,-0.0008,-0.0037,-0.0032,-0.0034,-0.0036,-0.0036,-0.0073,-0.0072,0,0,0,0,0,0,0.014,0.0129,0.0113,0.0111,0.0117,0.0085,0.0081,0.0081,0.0039,0.0033,0.0058,0.0056,0.0,-0.0005,-0.001,-0.0012,-0.0035,-0.0037,-0.0038,-0.0073,-0.0073,-0.0072,0,0,0,0,0,0,0.0141,0.014,0.0115,0.0119,0.0115,0.0086,0.0086,0.0081,0.0068,0.0035,0.0028,0.0052,-0.0,-0.0007,-0.0014,-0.0015,-0.0038,-0.004,-0.0073,-0.0073,-0.0072,-0.0019,0,0,0,0,0,0,0.0142,0.014,0.0141,0.012,0.0115,0.0113,0.0087,0.008,0.0068,0.0065,0.0028,0.0021,-0.0001,-0.001,-0.0016,-0.0018,-0.0041,-0.0074,-0.0073,-0.0073,-0.0021,-0.0017,-0.0013,0,0,0,0,0,0.0143,0.0155,0.0142,0.014,0.0118,0.0114,0.011,0.0086,0.0068,0.0071,0.0051,0.0022,-0.0011,-0.0011,-0.0018,-0.0021,-0.0074,-0.0073,-0.0073,-0.0023,-0.0018,-0.0013,0,0,0,0,0,0,0.0163,0.0151,0.0137,0.0143,0.0132,0.0108,0.0107,0.0089,0.0073,0.0068,0.0034,0.0027,0.0017,-0.0006,-0.0005,-0.003,-0.005,-0.0051,-0.001,-0.0005,-0.0001,-0.0026,-0.0043,0,0,0,0,0,0.0168,0.0176,0.0156,0.0163,0.0157,0.013,0.0123,0.0109,0.0093,0.0084,0.0053,0.0027,0.0015,0.0004,-0.0015,-0.0024,-0.0051,-0.0033,-0.0029,-0.0025,-0.005,-0.0065,-0.0065,-0.007,-0.007,-0.007,0,0,0.0175,0.0173,0.0175,0.0168,0.0154,0.0161,0.0125,0.0121,0.013,0.0081,0.0074,0.0041,0.0017,0.0009,0.0001,-0.0011,-0.0035,-0.0024,-0.0021,-0.0048,-0.0064,-0.0064,-0.0063,-0.0069,-0.0069,-0.0069,0,0,0.0206,0.0194,0.0209,0.0205,0.0193,0.0184,0.0185,0.0156,0.0146,0.0144,0.0106,0.0071,0.0055,0.0024,0.0014,0.0028,-0.0009,0.0023,0.002,0.0007,0.0007,0.0007,-0.0011,-0.0014,0.0023,0.0023,0.0023,0,0.0212,0.0231,0.0213,0.0227,0.0228,0.0199,0.0214,0.0208,0.018,0.0171,0.0154,0.0092,0.0062,0.0044,0.0036,0.0035,0.0019,0.0008,0.0013,0.0012,0.001,-0.0009,-0.0012,0.0025,0.0025,0.0025,0.0025,0,0.0253,0.0265,0.0275,0.0287,0.0287,0.0297,0.0286,0.0283,0.0264,0.0241,0.0208,0.0153,0.011,0.0095,0.0066,0.0033,0.0023,0.0025,0.0001,0.0014,-0.0007,-0.0011,0.0029,0.0028,0.0027,0.0027,0,0,0.0271,0.0299,0.0301,0.032,0.0318,0.033,0.0348,0.035,0.0366,0.0308,0.0309,0.0232,0.0165,0.0144,0.0089,0.0051,0.0024,0.0022,0.002,0.0004,-0.0011,-0.0059,-0.0069,0.0032,0.0031,0.003,-0.0016,0,0.0304,0.0355,0.0353,0.04,0.0421,0.0408,0.0435,0.043,0.0418,0.0414,0.0329,0.0311,0.0202,0.0181,0.0114,0.0075,0.001,0.0035,-0.0025,-0.0027,-0.007,-0.0076,-0.0025,-0.0066,-0.0021,-0.0022,-0.0022,0,0.0334,0.037,0.042,0.0468,0.0474,0.0498,0.0532,0.0545,0.053,0.0521,0.045,0.0396,0.0316,0.0236,0.011,0.0136,0.0034,-0.0019,-0.002,-0.0097,-0.0085,-0.0076,-0.0077,-0.003,-0.003,-0.0029,-0.0029,0,0.0362,0.0415,0.0464,0.0476,0.0522,0.0544,0.0562,0.0564,0.06,0.0577,0.0608,0.0488,0.0473,0.0326,0.0166,0.0156,0.0039,0.0036,-0.0121,-0.0124,-0.0113,-0.0115,-0.0096,-0.0096,-0.0095,-0.0095,-0.0095,0,0.0396,0.0433,0.0486,0.0513,0.0583,0.0581,0.0645,0.0654,0.0682,0.0737,0.0643,0.0661,0.0494,0.0402,0.0219,0.0035,0.0078,-0.0143,-0.0147,-0.0092,-0.0091,-0.0091,-0.009,-0.0097,-0.0097,-0.0096,-0.0096,0,0.0406,0.0442,0.0504,0.0567,0.0597,0.0634,0.0719,0.077,0.079,0.0867,0.0874,0.0827,0.072,0.0521,0.0328,0.0141,-0.0043,-0.0142,-0.0079,-0.0078,-0.021,-0.0206,-0.0283,-0.0285,-0.0287,-0.0289,-0.029,0,0.0411,0.0445,0.0542,0.0594,0.0624,0.0695,0.0757,0.081,0.0877,0.0961,0.1008,0.0949,0.0889,0.0584,0.0292,-0.0009,-0.0075,-0.0196,-0.0236,-0.0238,-0.0233,-0.0225,-0.0219,-0.0184,-0.0185,-0.0185,-0.0185,0,0.041,0.0445,0.0501,0.0616,0.0695,0.0798,0.0889,0.0972,0.105,0.1138,0.1187,0.115,0.0896,0.0626,0.0235,0.0023,-0.0135,-0.0215,-0.0206,-0.0158,-0.0152,-0.0145,-0.014,-0.0188,-0.0188,-0.0187,-0.0187,-0.0187,0.0399,0.0435,0.0519,0.0634,0.0732,0.0862,0.0957,0.1074,0.1199,0.1318,0.1272,0.1235,0.0958,0.0475,0.0158,-0.0155,-0.0166,-0.03,-0.0295,-0.0291,-0.0284,-0.0284,-0.0343,-0.0343,-0.0344,-0.0344,-0.0345,0,0.0386,0.0438,0.0535,0.0663,0.0779,0.0847,0.1027,0.1125,0.1276,0.1372,0.1386,0.1104,0.083,0.0526,0.0074,-0.0236,-0.0232,-0.0334,-0.0251,-0.0247,-0.0244,-0.0232,-0.0278,-0.0279,-0.0279,-0.028,0,0,0.0373,0.0453,0.0518,0.0681,0.0779,0.0939,0.1054,0.1202,0.1313,0.1372,0.1375,0.1289,0.0935,0.0609,0.0229,-0.001,-0.0063,-0.0065,-0.0089,0.0058,0.0065,-0.02,-0.0176,0,0,0,0,0]}],[{"header":{"parameterUnit":"m.s-1","parameterCategory":2,"la1":30.2991,"la2":30.254,"lo1":-89.0895,"lo2":-89.0444,"dy":0.0017,"dx":0.0017,"nx":28,"ny":28,"refTime":"2024-08-26T21:00:00:Z","depth":"4","parameterNumber":2,"parameterNumberName":"U-component_of_CURRENTS"},"data":[0,0,0,0,0,0,0,0,0,0,0,0,0,0,0,0,0,0,0,0,0,0,0,0,0,0,0,0,0,0,0,0,0,0,0,0,0,0,0,0,0,0,0,0,0,0,0,0,0,0,0,0,0,0,0,0,0,0,0.12,0.12,0,0.1272,0.1273,0.1274,0.1339,0.134,0.134,0.1341,0.1436,0.1438,0.144,0,0,0,0,0,0,0,0,0,0,0,0,0,0.1141,0.1142,0.12,0.12,0.1201,0.1272,0.1273,0.1274,0.1339,0.134,0.134,0.1341,0.1436,0.1438,0.144,0,0,0,0,0,0,0,0,0,0,0,0,0,0.1186,0.1142,0.1199,0.1242,0.1246,0.1272,0.1273,0.1274,0.1339,0.134,0.1341,0.1342,0.1435,0.1438,0.144,0.1436,0,0,0.1449,0.145,0,0,0,0,0,0,0,0,0.1183,0.1188,0.1235,0.1239,0.1244,0.1297,0.1287,0.1329,0.1338,0.1304,0.1341,0.1342,0.1391,0.1397,0.1409,0.144,0.1444,0.1449,0.1451,0.1452,0.1453,0,0,0,0,0,0,0,0.118,0.1185,0.1229,0.1235,0.1241,0.1265,0.1273,0.1296,0.1341,0.1307,0.1312,0.1319,0.1394,0.1406,0.1412,0.1446,0.1449,0.1451,0.1453,0.1454,0.1572,0.1574,0,0,0,0,0,0,0.1167,0.1182,0.1227,0.1231,0.1215,0.1265,0.1274,0.1279,0.1341,0.1351,0.1318,0.1321,0.1401,0.1408,0.1415,0.1504,0.1452,0.1455,0.1456,0.1571,0.1573,0.1574,0,0,0,0,0,0,0.1166,0.1171,0.1224,0.1208,0.1216,0.1265,0.1271,0.128,0.1325,0.1348,0.1359,0.1357,0.1402,0.1411,0.1462,0.1504,0.1456,0.1458,0.1569,0.1572,0.1574,0.1623,0,0,0,0,0,0,0.1164,0.1169,0.1187,0.1207,0.1217,0.1258,0.127,0.1281,0.1325,0.1332,0.1385,0.1393,0.1403,0.1458,0.1465,0.1507,0.1461,0.1567,0.157,0.1573,0.1619,0.1626,0.1632,0,0,0,0,0,0.1161,0.1176,0.1187,0.1194,0.1233,0.1259,0.1267,0.1305,0.1327,0.135,0.1386,0.1393,0.148,0.1461,0.1469,0.1513,0.1566,0.1569,0.1573,0.1616,0.1625,0.1632,0,0,0,0,0,0,0.1163,0.1184,0.1198,0.122,0.1246,0.127,0.1299,0.1321,0.1368,0.1384,0.1407,0.1418,0.1482,0.1486,0.1464,0.1555,0.1526,0.1531,0.1557,0.1565,0.1572,0.156,0.1463,0,0,0,0,0,0.1168,0.1185,0.1208,0.1228,0.1244,0.1277,0.1299,0.1323,0.1357,0.1381,0.1416,0.1455,0.1496,0.1521,0.1553,0.1596,0.1607,0.1631,0.1638,0.1643,0.1639,0.1699,0.1711,0.1585,0.1585,0.1585,0,0,0.1176,0.1188,0.1201,0.1231,0.1256,0.1284,0.1295,0.1334,0.1369,0.1382,0.145,0.1482,0.1513,0.1569,0.1598,0.1581,0.1685,0.1647,0.1652,0.1645,0.1704,0.1716,0.1727,0.1587,0.1587,0.1587,0,0,0.1184,0.1211,0.1226,0.125,0.1287,0.1309,0.1326,0.1367,0.1404,0.1459,0.1485,0.1533,0.1596,0.1622,0.1643,0.1701,0.1721,0.1727,0.1751,0.181,0.1821,0.183,0.186,0.1871,0.1727,0.1728,0.1728,0,0.1198,0.1213,0.1237,0.1257,0.1283,0.1323,0.1351,0.139,0.1446,0.1484,0.1491,0.1601,0.1617,0.169,0.1706,0.1717,0.1749,0.1719,0.1819,0.1828,0.1837,0.1865,0.1877,0.173,0.173,0.173,0.1729,0,0.121,0.1235,0.1249,0.1287,0.1321,0.1351,0.1399,0.1445,0.1495,0.1541,0.1634,0.1661,0.1727,0.1744,0.174,0.1821,0.1823,0.1823,0.1797,0.1853,0.1879,0.1891,0.1734,0.1733,0.1732,0.1732,0,0,0.1206,0.1249,0.1258,0.1282,0.134,0.1368,0.1429,0.15,0.1562,0.1627,0.1704,0.1765,0.1801,0.1824,0.1841,0.1875,0.1952,0.1877,0.1879,0.1902,0.2081,0.1933,0.1931,0.1988,0.199,0.1992,0.2073,0,0.1213,0.1248,0.1273,0.1327,0.1353,0.1406,0.1467,0.1541,0.1612,0.1698,0.1754,0.184,0.1831,0.1873,0.1911,0.1956,0.1987,0.1929,0.2025,0.2027,0.1887,0.1941,0.2,0.2082,0.2085,0.2087,0.2088,0,0.1215,0.1239,0.1285,0.1352,0.1373,0.1423,0.1529,0.1593,0.1714,0.177,0.1862,0.1914,0.1994,0.1964,0.2075,0.2052,0.2065,0.2078,0.2083,0.1931,0.19,0.2016,0.211,0.2108,0.2106,0.2105,0.2104,0,0.1193,0.125,0.129,0.1312,0.1396,0.1445,0.1514,0.1632,0.1701,0.1834,0.19,0.2006,0.2074,0.2127,0.2159,0.214,0.2257,0.2237,0.2111,0.2101,0.2188,0.2177,0.2293,0.2293,0.2293,0.2292,0.2292,0,0.1174,0.1209,0.1292,0.1312,0.1387,0.1462,0.1568,0.1641,0.1766,0.1858,0.1958,0.2024,0.2123,0.2194,0.2203,0.2198,0.2307,0.2116,0.2115,0.2206,0.2196,0.2196,0.2184,0.2295,0.2295,0.2294,0.2294,0,0.1134,0.1182,0.1234,0.1334,0.1374,0.1442,0.1584,0.1655,0.1791,0.1905,0.1951,0.2079,0.2169,0.2234,0.2311,0.2245,0.2254,0.2215,0.2306,0.2309,0.2044,0.2034,0.2086,0.2081,0.2077,0.2074,0.2072,0,0.1109,0.113,0.1244,0.1279,0.1329,0.144,0.1509,0.1651,0.172,0.1918,0.1952,0.2086,0.2153,0.2163,0.2224,0.2237,0.2196,0.218,0.2094,0.2031,0.2026,0.2021,0.2016,0.2066,0.2065,0.2064,0.2063,0,0.1052,0.1108,0.1147,0.1232,0.1305,0.1374,0.1486,0.1528,0.1696,0.1835,0.1915,0.1956,0.2041,0.2078,0.2098,0.2098,0.2184,0.214,0.2146,0.2065,0.2007,0.2005,0.2004,0.2049,0.2051,0.2053,0.2053,0,0.1012,0.1022,0.1087,0.1157,0.1239,0.1275,0.1352,0.1437,0.1525,0.1742,0.1764,0.1908,0.2032,0.2007,0.2033,0.2018,0.1972,0.189,0.1909,0.1924,0.1827,0.1726,0.1686,0,0,0,0,0,0.0955,0.0947,0.1002,0.1051,0.1137,0.1184,0.131,0.1391,0.1564,0.158,0.1669,0.174,0.1783,0.1848,0.1796,0.1928,0.1961,0.1855,0.1871,0.1976,0.1991,0.1887,0,0,0,0,0,0,0.0902,0.0931,0.0958,0.0961,0.0981,0.1047,0.1123,0.1237,0.1259,0.1447,0.1485,0.1617,0.1685,0.1794,0.1757,0.1773,0.1742,0.1942,0.1937,0.1968,0.1981,0.1994,0.1892,0,0,0,0,0]},{"header":{"parameterUnit":"m.s-1","parameterCategory":2,"la1":30.2991,"la2":30.254,"lo1":-89.0895,"lo2":-89.0444,"dy":0.0017,"dx":0.0017,"nx":28,"ny":28,"refTime":"2024-08-26T21:00:00:Z","depth":"4","parameterNumber":3,"parameterNumberName":"V-component_of_CURRENTS"},"data":[0,0,0,0,0,0,0,0,0,0,0,0,0,0,0,0,0,0,0,0,0,0,0,0,0,0,0,0,0,0,0,0,0,0,0,0,0,0,0,0,0,0,0,0,0,0,0,0,0,0,0,0,0,0,0,0,0,0,0.0202,0.0202,0,0.0174,0.0174,0.0174,0.0159,0.0159,0.0159,0.0159,0.0132,0.0131,0.013,0,0,0,0,0,0,0,0,0,0,0,0,0,0.0226,0.0226,0.0202,0.0202,0.0201,0.0174,0.0174,0.0173,0.0159,0.0159,0.0159,0.0159,0.0132,0.0131,0.013,0,0,0,0,0,0,0,0,0,0,0,0,0,0.0209,0.0226,0.0202,0.0191,0.0189,0.0174,0.0174,0.0173,0.0159,0.0159,0.0159,0.0159,0.0132,0.0131,0.013,0.0126,0,0,0.0127,0.0127,0,0,0,0,0,0,0,0,0.021,0.0209,0.0193,0.0191,0.019,0.0169,0.0172,0.0157,0.0159,0.0171,0.0159,0.0159,0.0144,0.0142,0.0138,0.0125,0.0124,0.0127,0.0126,0.0126,0.0126,0,0,0,0,0,0,0,0.0212,0.021,0.0192,0.0192,0.019,0.0181,0.0178,0.0169,0.0159,0.017,0.0169,0.0165,0.0143,0.0139,0.0137,0.0123,0.0127,0.0126,0.0125,0.0125,0.0122,0.0123,0,0,0,0,0,0,0.0215,0.0211,0.0193,0.0191,0.0199,0.018,0.0178,0.0177,0.0159,0.0156,0.0165,0.0164,0.0141,0.0138,0.0136,0.0152,0.0126,0.0125,0.0124,0.0122,0.0122,0.0123,0,0,0,0,0,0,0.0216,0.0214,0.0194,0.02,0.0196,0.018,0.0179,0.0176,0.0175,0.0155,0.0152,0.0167,0.014,0.0137,0.0135,0.015,0.0125,0.0124,0.0121,0.0122,0.0122,0.0169,0,0,0,0,0,0,0.0216,0.0214,0.0217,0.02,0.0196,0.0194,0.0179,0.0176,0.0172,0.0171,0.0156,0.0153,0.014,0.0137,0.0134,0.0148,0.0123,0.012,0.0121,0.0122,0.0167,0.0172,0.0175,0,0,0,0,0,0.0217,0.0222,0.0218,0.0216,0.02,0.0194,0.0192,0.018,0.0173,0.0178,0.0166,0.0154,0.0141,0.0136,0.0133,0.0147,0.012,0.0121,0.0122,0.0165,0.0171,0.0175,0,0,0,0,0,0,0.023,0.0221,0.0215,0.0216,0.021,0.0192,0.0193,0.0184,0.0179,0.0178,0.0159,0.0155,0.0158,0.0146,0.0141,0.0149,0.0129,0.013,0.0163,0.0168,0.0172,0.0179,0.0122,0,0,0,0,0,0.0235,0.0241,0.0226,0.0229,0.0226,0.0211,0.0208,0.02,0.019,0.0188,0.0179,0.0168,0.0159,0.0159,0.0148,0.0154,0.0111,0.0161,0.0165,0.0169,0.0172,0.0115,0.0114,0.0127,0.0127,0.0127,0,0,0.0239,0.0237,0.0238,0.0233,0.0226,0.0233,0.0209,0.0208,0.0218,0.0186,0.0199,0.0181,0.0162,0.0168,0.0168,0.0161,0.0141,0.017,0.0173,0.0175,0.0116,0.0115,0.0114,0.0127,0.0127,0.0127,0,0,0.0256,0.0249,0.0262,0.0261,0.0256,0.0249,0.0252,0.0241,0.0241,0.0248,0.0225,0.0215,0.0211,0.0198,0.019,0.0211,0.0161,0.0211,0.0242,0.0188,0.0186,0.0184,0.0117,0.0109,0.0218,0.0218,0.0218,0,0.0262,0.0275,0.0264,0.0277,0.0281,0.0261,0.0276,0.0274,0.0267,0.0266,0.0261,0.0238,0.0225,0.0219,0.0231,0.0221,0.0175,0.0226,0.0192,0.0189,0.0186,0.0118,0.0108,0.022,0.022,0.022,0.0219,0,0.0285,0.03,0.0307,0.0322,0.0325,0.0333,0.0329,0.0332,0.0328,0.0322,0.0317,0.0293,0.0276,0.0274,0.0263,0.0242,0.021,0.0199,0.0178,0.0188,0.0115,0.0104,0.0224,0.0223,0.0222,0.0221,0,0,0.0287,0.0319,0.0323,0.0342,0.035,0.0354,0.0371,0.0375,0.038,0.0373,0.0368,0.0361,0.0336,0.0326,0.0301,0.0265,0.0205,0.0232,0.0228,0.0163,0.0068,0.0072,0.0059,0.0184,0.0183,0.0182,0.0022,0,0.031,0.0351,0.0359,0.0397,0.0415,0.0409,0.0428,0.0429,0.0421,0.0411,0.0381,0.0369,0.036,0.0345,0.0309,0.023,0.018,0.0249,0.0071,0.0065,0.0066,0.0049,0.0178,0.0013,0.001,0.0008,0.0007,0,0.0328,0.0356,0.04,0.044,0.0446,0.0467,0.0479,0.0495,0.0476,0.0465,0.044,0.0404,0.0359,0.0342,0.0214,0.0256,0.0169,0.0105,0.0097,0.0078,0.0049,0.0003,-0.0014,-0.0012,-0.0011,-0.0009,-0.0008,0,0.0332,0.0382,0.0422,0.0435,0.0474,0.0493,0.0513,0.0512,0.0524,0.0492,0.0477,0.0416,0.0374,0.0273,0.0157,0.0174,-0.0005,-0.0004,-0.009,-0.0092,-0.0069,-0.0065,-0.0112,-0.0112,-0.0111,-0.0111,-0.011,0,0.0346,0.0376,0.0432,0.0452,0.0499,0.0519,0.0554,0.0557,0.0555,0.0561,0.0509,0.0479,0.0354,0.0244,0.014,-0.0009,-0.0026,-0.0093,-0.0131,-0.0047,-0.0038,-0.0078,-0.0072,-0.0117,-0.0116,-0.0114,-0.0113,0,0.0334,0.0374,0.0421,0.0479,0.0504,0.0535,0.0591,0.0609,0.0606,0.0602,0.059,0.0505,0.037,0.023,0.0041,-0.0032,-0.0176,-0.0231,-0.0147,-0.0176,-0.0227,-0.0216,-0.0342,-0.0343,-0.0344,-0.0345,-0.0345,0,0.0325,0.0352,0.0435,0.0471,0.0502,0.0557,0.0597,0.0629,0.0647,0.0619,0.0612,0.0488,0.0414,0.0153,0.0007,-0.0216,-0.0234,-0.0321,-0.0249,-0.0225,-0.025,-0.0238,-0.0226,-0.0347,-0.0347,-0.0347,-0.0348,0,0.0305,0.0341,0.0386,0.0468,0.0525,0.0584,0.0642,0.0659,0.0686,0.0677,0.0623,0.0499,0.0337,0.0156,-0.0029,-0.0179,-0.0264,-0.0332,-0.033,-0.0263,-0.0233,-0.0254,-0.0241,-0.0351,-0.0351,-0.035,-0.035,0,0.0291,0.0317,0.0392,0.0465,0.0529,0.0593,0.0629,0.066,0.0685,0.0669,0.0642,0.0489,0.0398,0.0171,0.0007,-0.0144,-0.0167,-0.02,-0.0205,-0.0203,-0.0098,-0.0036,-0.0134,0,0,0,0,0,0.0281,0.0328,0.0385,0.0472,0.053,0.0584,0.0651,0.0682,0.0708,0.068,0.067,0.053,0.0301,0.0198,0.0047,-0.002,-0.0207,-0.0202,-0.025,-0.037,-0.0366,-0.0263,0,0,0,0,0,0,0.0281,0.034,0.0383,0.0464,0.0519,0.0596,0.0645,0.0669,0.0661,0.066,0.0542,0.0495,0.0269,0.0385,0.0044,-0.0003,-0.0052,-0.0307,-0.031,-0.0372,-0.0369,-0.0365,-0.0258,0,0,0,0,0]}]]